Location: Newark
(42.8481°N, 0.4872°E)
Time: 16:47:26
(UTC+00:00)

Vanguard 3 - Pass Details

Date: 01 November 2020
Orbit: 508 x 3262 km, 33.3° (Epoch: 28 November)

Event Time Altitude Azimuth Distance (km) Brightness Sun altitude
Rises 06:19:50 0° 256° (WSW) 6,274 11.1 -3.1°
Reaches altitude 10° 06:23:36 10° 253° (WSW) 5,531 10.9 -2.4°
Maximum altitude 06:41:25 63° 178° (S) 3,502 10.6 0.7°
Drops below altitude 10° 07:00:02 10° 103° (ESE) 5,743 13.7 3.8°
Sets 07:04:01 0° 101° (E) 6,516 13.8 4.5°
